Location: Stara Lesna
(49.1528°N, 20.2911°E)
Time: 10:09:46
(UTC+02:00)

Cosmos 1933 Rocket - Pass Details

Date: 13 July 2020
Orbit: 607 x 629 km, 82.5° (Epoch: 05 August)

Event Time Altitude Azimuth Distance (km) Brightness Sun altitude
Exits shadow 02:06:17 33° 204° (SSW) 1,028 4.1 -16.8°
Maximum altitude 02:08:09 72° 281° (W) 644 3.5 -16.7°
Drops below altitude 10° 02:12:31 10° 6° (N) 1,973 7.4 -16.4°
Sets 02:14:45 0° 9° (N) 2,884 8.6 -16.3°
